Location: Baix
(44.7118°N, 4.7648°E)
Time: 16:20:56
(UTC+00:00)

CZ-2C R/B - Pass Details

Date: 07 August 2020
Orbit: 501 x 568 km, 97.7° (Epoch: 23 September)

Event Time Altitude Azimuth Distance (km) Brightness Sun altitude
Rises 03:20:35 0° 10° (N) 2,719 7.2 -12.0°
Reaches altitude 10° 03:22:44 10° 9° (N) 1,810 6.2 -11.7°
Maximum altitude 03:26:38 72° 285° (WNW) 563 2.7 -11.2°
Enters shadow 03:30:16 11° 201° (SSW) 1,698 4.8 -10.7°
